Retour au catalogue

STARLINK-35792

ActifCommunicationsVLEO
NORAD 67092·PAYLOAD·🇺🇸 United States

Lancé Dec 14, 2025 depuis Vandenberg Space Force Base

Loading…

Prochains Passages (prochaines 24 heures)

TLE

FraisSource: CelesTrak SupGP

Époque: Sep 15, 2026, 04:13 UTC

1 67092C 25298T   26258.17618056 -.00042455  00000+0 -35569-2 0  2586
2 67092  69.9999 256.7928 0003863 267.5659 252.6334 14.98360525    15

Suivez STARLINK-35792 en temps réel avec AllMySat

Download on the App Store